Regional Weather Roundup
Issued by NWS Grand Forks, ND

Home | Current Version | Previous Version | Graphics & Text | Print | Product List | Glossary On
Versions: 1 2 3 4 5 6 7 8 9 10 11 12 13 14 15 16 17 18 19 20 21 22 23 24 25 26 27 28 29 30 31 32 33 34 35 36 37 38 39 40 41 42 43 44 45 46 47 48 49 50
000
ASUS43 KFGF 160710
RWRFGF
PRAIRIE TO PINES  WEATHER ROUNDUP
NATIONAL WEATHER SERVICE EASTERN NORTH DAKOTA/GRAND FORKS ND
200 AM CDT WED APR 16 2014

 **SATELLITE DATA USED TO AUGMENT SKY COVER AT AUTOMATED STATIONS**
 *****  WEATHER ACROSS EASTERN NORTH DAKOTA  *****

CITY           SKY/WX    TMP DP  RH WIND       PRES   REMARKS
GRAND FORKS    CLOUDY    29  12  49 E15       29.97S WCI  18
GRAND FRKS AFB CLOUDY    29  13  51 E13       30.01R WCI  18
GRAND FRKS NWS   N/A     30 N/A N/A E10         N/A  WCI  21
DEVILS LAKE    CLOUDY    27  12  54 E21       29.95R WCI  13
FARGO          LGT SNOW  30  22  72 SE16      29.96F WCI  19
WAHPETON ARPT  CLOUDY    30  21  69 E22G29    29.92S WCI  17
$$

 ***** WEATHER ACROSS CENTRAL AND WESTERN NORTH DAKOTA  *****

CITY           SKY/WX    TMP DP  RH WIND       PRES   REMARKS
BISMARCK       CLOUDY    30  16  56 E21G30    29.78R WCI  17
MINOT          LGT SNOW  24  20  84 E18       29.89R FOG     WCI  10
JAMESTOWN      CLOUDY    27  23  85 E22G30    29.85F WCI  13
MINOT AFB      LGT SNOW  23  23 100 E16       29.90R FOG     WCI  10
GARRISON         N/A     27  21  78 E18G29    29.82R WCI  14
WILLISTON        N/A    N/A N/A N/A MISG      29.83R
DICKINSON      CLOUDY    28  18  66 NE14      29.70R WCI  17
HETTINGER      CLOUDY    33  23  66 E9        29.66R
$$

 *****  OTHER AIRPORT OBSERVATIONS IN OUR AREA  *****

CITY           SKY/WX    TMP DP  RH WIND       PRES   REMARKS
WALHALLA       FAIR      27  14  59 NE8       30.07R WCI  18
GRAFTON AIRPOR FAIR      27  16  63 E14       30.04S WCI  15
VALLEY CITY AR NOT AVBL
CANDO          LGT SNOW  25  21  86 E14G22    29.98R WCI  13
CAVALIER APRT  FAIR      27  14  59 E10G16    30.06R WCI  17
GWINNER        MOSUNNY   32  16  51 E21       29.85F WCI  20
SHEYENNE NWR     N/A     31  23  73 E17       29.95  WCI  19
ROLLA          LGT SNOW  23  21  93 E13G20    29.98R WCI  11
 ***** THE ABOVE OBSERVATIONS ARE NON NWS ARE NOT QUALITY
       CONTROLLED AND MAY MIS-REPORT RAIN FOR SNOW...
$$

  *****  WEATHER ACROSS NORTHERN MINNESOTA  *****

CITY           SKY/WX    TMP DP  RH WIND       PRES   REMARKS
FLAG ISLAND    PTCLDY    12   9  85 CALM      30.11R
WARROAD        PTCLDY    18   9  68 E6        30.10R WCI   9
ROSEAU         PTCLDY    23  12  63 E9        30.08S WCI  13
HALLOCK        CLOUDY    27  12  54 E10       30.06S WCI  17
THF RVR FALLS  CLOUDY    25   9  50 E13       30.04R WCI  13
BAUDETTE       PTCLDY    19   6  57 E7        30.10R WCI  10
WASKISH        PTCLDY    19   9  63 E7        30.07S WCI  10
CROOKSTON      CLOUDY    28  10  47 E10       30.02S WCI  19
$$
  *****  WEATHER ACROSS CENTRAL AND WEST MINNESOTA  *****

CITY           SKY/WX    TMP DP  RH WIND       PRES   REMARKS
FOSSTON        CLOUDY    27   9  46 E9        30.01S WCI  17
BEMIDJI        CLOUDY    26   4  39 E9        30.02F WCI  16
PARK RAPIDS    CLOUDY    28   6  39 E8        30.00S WCI  20
ELBOW LAKE     CLOUDY    28  24  84 E20G29    29.92F WCI  15
WADENA         CLOUDY    27  18  69 SE16      29.99S WCI  14
DETROIT LAKES  MIX PCPN  30  14  51 SE17G25   29.97F WCI  18
MOORHEAD       NOT AVBL
FERGUS FALLS   LGT SNOW  27  21  80 E14G20    29.93S VSB 1   WCI  15
MORRIS MN      CLOUDY    30  21  69 E29G36    29.88F WCI  15
STAPLES        CLOUDY    27  16  63 E6        30.01F WCI  20
$$
  *****  WEATHER ELSEWHERE ACROSS MINNESOTA  *****

CITY           SKY/WX    TMP DP  RH WIND       PRES   REMARKS
DULUTH         PTCLDY    23   8  52 E5        30.08S WCI  17
INTRNTL FALLS  CLEAR     16  10  77 NE3       30.11R
ELY            CLEAR      9   7  92 CALM      30.10S
CLOQUET        MOCLDY    25   7  46 CALM      30.08S
WHEATON        CLOUDY    34  18  51 E20       29.91S WCI  22
BRAINERD       CLOUDY    33   2  26 E5        30.04S
HIBBING        PTCLDY    22   7  52 CALM      30.08S
ALEXANDRIA     LGT SNOW  27  23  85 E20G28    29.95F FOG     WCI  13
SAINT CLOUD    CLOUDY    31  19  61 E9        30.03S WCI  23
MINNEAPOLIS    CLOUDY    34  16  47 E14       30.05S WCI  25
$$

  *****  WEATHER ACROSS SOUTH DAKOTA  *****

CITY           SKY/WX    TMP DP  RH WIND       PRES   REMARKS
SIOUX FALLS    CLOUDY    41  27  57 SE16      29.69F
BROOKINGS      NOT AVBL
WATERTOWN      CLOUDY    32  21  64 E20G29    29.73F WCI  20
HURON          CLOUDY    41  26  55 SE22G32   29.60F
SISSETON         N/A     32  15  49 SE18      29.85F WCI  20
ABERDEEN       CLOUDY    32  20  61 E18       29.74F WCI  20
MITCHELL       CLOUDY    42  29  59 SE16      29.60F
PIERRE         CLOUDY    40  28  62 NE25      29.51F
MOBRIDGE       CLOUDY    34  19  54 E28G36    29.64R WCI  21
RAPID CITY     CLOUDY    41  38  89 NW18G26   29.60S
$$

  *****  SOME WEATHER IN NEARBY STATES *****

CITY           SKY/WX    TMP DP  RH WIND       PRES   REMARKS
GLASGOW MT     PTCLDY    31  20  63 NE17      29.78R WCI  19
GREAT FALLS MT CLOUDY    36  36 100 SW5       29.87S
CHEYENNE WY    LGT SNOW  36  32  85 W22G44    29.73R FOG
SCOTTSBLUFF NE CLOUDY    54  27  35 W28G51    29.59F
OMAHA NE       CLOUDY    48  29  47 S23G33    29.81F
DES MOINES IA  PTCLDY    40  27  59 SE14      29.95F
DAVENPORT IA   CLEAR     30  19  63 SE10      30.14F WCI  21
CHICAGO IL     CLEAR     29  19  66 S6        30.22R WCI  23
EAU CLAIRE WI  CLOUDY    31  13  47 SE6       30.11S
LA CROSSE WI   CLOUDY    32  19  58 E8        30.11F WCI  25
$$

  *****  SOME NATIONAL WEATHER *****

CITY           SKY/WX    TMP DP  RH WIND       PRES   REMARKS
LA GUARDIA NY  CLOUDY    36  26  67 NW20      29.95R
RALEIGH NC     PTCLDY    37  25  61 N6        30.11R
ATLANTA GA     CLEAR     36  27  69 N7        30.13R
NEW ORLEANS LA CLEAR     50  36  58 NE16      30.17S
OKLAHOMA CITY  MOCLDY    48  24  39 S13       30.00F
ALBUQUERQUE NM MOCLDY    53   8  16 S15       29.92S
SALT LAKE CITY CLOUDY    50  20  30 N5        29.94S
LOS ANGELES CA CLOUDY    59  55  87 CALM      29.88S
BOISE ID       PTCLDY    41  17  38 W7        30.01R
SEATTLE WA     CLOUDY    50  27  40 S7        30.09F
$$

*** WEATHER ACROSS MANITOBA...SASKATCHEWAN AND ONTARIO ***
                ***ONTARIO***

CITY           SKY/WX    TMP DP  RH WIND       PRES   REMARKS
GERALDTON      CLEAR      5  -6  61 W2        30.10R
THUNDER BAY    CLEAR     10   7  85 W3        30.18S
SIOUX LOOKOUT  CLEAR      1  -2  85 S2        30.12R
TORONTO        CLEAR     21  10  63 NW17      30.22R WCI   7
BIG TROUT LK   CLEAR     -6 -11  77 NW6       30.14R WCI -18
PICKLE LAKE    NOT AVBL
DRYDEN         CLEAR     14   1  57 S6        30.11S WCI   5
KENORA         NOT AVBL
$$
                *** MANITOBA***

CITY           SKY/WX    TMP DP  RH WIND       PRES   REMARKS
BRANDON        CLOUDY    19  12  73 E18G24    30.08R WCI   4
DAUPHIN        CLEAR     19  10  68 E8        30.16R WCI   9
ISLAND LAKE    CLEAR      7   0  72 N3        30.23R
PILOT MOUND      N/A     21  14  73 E15G21      N/A  WCI   8
THE PAS        CLEAR      3  -8  60 E2        30.24R
THOMPSON       CLEAR      0  -9  65 N9        30.30R WCI -16
WINNIPEG       CLOUDY    19   1  45 NE10      30.14R WCI   8
LYNN LAKE      CLEAR      1  -6  71 N6        30.32R WCI -10
CHURCHILL      CRYSTALS   0  -4  85 N17G24    30.28S DRFTSNOWWCI -21
GILLAM         PTCLDY    -4 -11  71 N7        30.29R WCI -18
$$
                ***SASKATCHEWAN***

CITY           SKY/WX    TMP DP  RH WIND       PRES   REMARKS
ESTEVAN        FLURRIES  25  21  86 E21G28    29.92  WCI  10
KINDERSLEY     FLURRIES  25  23  93 NE14      29.96R WCI  13
LLOYDMINSTER   PTCLDY    19  19 100 NE5       30.04R FOG     WCI  13
PRINCE ALBERT  PTCLDY    18   7  62 E10       30.13R WCI   6
REGINA         FLURRIES  23  19  86 E20       29.96R WCI   8
YORKTON        PTCLDY    19   9  63 E9        30.07R WCI   9
N. BATTLEFORD  FLURRIES  21  19  93 E12G17    30.08R WCI   9
LA RONGE       CLEAR     10   0  61 NE10      30.23R WCI  -3
SASKATOON      LGT SNOW  23  19  86 NE13      30.07R WCI  11
SWIFT CURRENT  CLOUDY    27  23  86 SE10      29.89R WCI  17
$$
NOTE: THESE ARE AUTOMATED STATIONS WITH LIMITED QUALITY CONTROL
      "FAIR" INDICATES FEW OR NO CLOUDS BELOW 12,000 FEET WITH NO
      SIGNIFICANT WEATHER AND/OR OBSTRUCTIONS TO VISIBILITY.
      SKY/WX - SKY CONDITION AND SIGNIFICANT WEATHER.
      TMP - AIR TEMPERATURE.    DP   - DEWPOINT TEMPERATURE.
      RH  - RELATIVE HUMIDITY.  PRES - PRESSURE.
      HX  - HEAT INDEX.         WCI  - WIND CHILL INDEX.
$



USA.gov is the U.S. government's official web portal to all federal, state and local government web resources and services.